2023-003D (55136 NORAD) Tracking and Keplerian Element Data

This shows tracking and keplerian element data for the satellite.

Feedback or suggestion? Click here.




ElementValue
Catalog55136
Name2023-003D
Epoch Orbit75
Epoch Day14.19762203
Epoch Year2023
RAAN104.1167
Inclination97.2718
Eccentricity0.0011675
Argument of Perigee281.4593
Mean Anonmoly133.2325
Mean Motion15.21323812
Decay Rate0.00013691
L11 55136U 23003D 23014.19762203 .00013691 00000+0 61290-3 0 9998
L22 55136 97.2718 104.1167 0011675 281.4593 133.2325 15.21323812 757



Live tracking and technical data element details for 2023-003D (NORAD 55136). 2023-003D can be tracked NOW for your location showing map with azimuth and elevation plus other details from your city location.







IsCatalogInMostPopularTable: catalog: 55136, numindb: 3
Update: records affected: 1



GetName: 55136 2023-003D

Hit Count: updated at: Tue, 07 Feb 2023 15:59:36 GMT